Location: *
(49.8044°N, 4.0558°E)
Time: 23:56:52
(UTC+00:00)

MOS 1 - Pass Details

Date: 09 April 2020
Orbit: 879 x 891 km, 99.2° (Epoch: 04 June)

Event Time Altitude Azimuth Distance (km) Brightness Sun altitude
Rises 19:12:15 0° 163° (SSE) 3,468 7.0 -7.5°
Reaches altitude 10° 19:14:37 10° 163° (SSE) 2,535 6.3 -7.9°
Maximum altitude 19:20:17 87° 252° (WSW) 892 4.4 -8.7°
Drops below altitude 10° 19:26:00 10° 344° (NNW) 2,561 7.3 -9.6°
Sets 19:28:25 0° 345° (NNW) 3,506 8.1 -9.9°
